Location: Gorlice
(49.6633°N, 21.1693°E)
Time: 12:11:39
(UTC+01:00)

ISS - Pass Details

Date: 31 January 2019
Orbit: 403 x 411 km, 51.6° (Epoch: 23 February)

Event Time Altitude Azimuth Distance (km) Brightness Sun altitude
Rises 18:09:19 0° 275° (W) 2,336 1.6 -16.4°
Reaches altitude 10° 18:11:26 10° 280° (W) 1,477 0.2 -16.7°
Maximum altitude 18:14:42 58° 0° (N) 483 -3.6 -17.3°
Enters shadow 18:15:19 48° 48° (NE) 549 -3.6 -17.4°
